Weather in Toshviska

Russia / Nenets Autonomous Okrug     67°07′15″N   52°18′04″E
temp.,
°C
wind,
m/s
gust,
m/s
humid.,
%
clouds,
%
prec.,
mm/h
press.,
hPa
HPBL,
m
1 march, mon
mon100:00−11s569498 0.1 100698
03:00−9s6119599 0.3 1003307
06:00−5ssw81395100 1.3 998545
09:00−4ssw91495100 2.8 994719
12:00−4ssw101595100 3.7 989814
15:00−1sw101597100 6.9 986600
18:000w101595100 0.5 985691
21:00−2wsw6119193 0.6 985190
2 march, tue
tue200:00−4w6109591 0.1 985274
03:00−2wsw489395 0.2 985304
06:00−6wsw589699 0.3 985168
09:00−5wsw479599 0.5 986227
12:00−4w579492 0.1 987345
15:00−4w459795 0.5 988252
18:00−6nw4587100 0.6 98869
21:00−11w458893 0.6 98930
3 march, wed
wed300:00−12w349420 0.0 98821
03:00−13s229543 0.0 98921
06:00−15ese239769 0.0 98820
09:00−13ene339679 0.1 99057
12:00−12nne4594100 0.1 991209
15:00−14n469598 0.1 992212
18:00−17nnw459797 0.1 99292
21:00−18nw449797 0.1 99362
4 march, thu
thu400:00−18nw449795 0.1 99375
03:00−17wnw339796 0.1 99354
06:00−16nne239699 0.1 99341
09:00−15ne579498 0.3 993283
12:00−15ne6892100 0.1 994351
15:00−17ne6993100 0.3 995349
18:00−21nne589796 0.0 996121
21:00−22nne479996 0.0 99799
5 march, fri
fri500:00−23n579997 0.0 997115
03:00−25n589899 0.0 998109
06:00−27n469995 0.0 99976
09:00−23nnw479796 0.1 999246
12:00−20nnw5694100 0.1 1001403
15:00−20nnw5793100 0.1 1003484
18:00−23nw479796 0.1 1004123
21:00−24nnw479796 0.1 1005124